Theta_e
360 362 365 365 365 364 361 360 362 362 362 357 359 359 358 355 353 352 354 358 354 353 355 354 357 355 353 351 351 354 353 354 355 353 355 354 361 359 365 370 371 370 370 371 371 371 370 369 368 367 367 366 365 365 365 367 366 365 363 362 361 360 360 359 358 357 359 360 360 361 359 358 360 359 359 359 359 357 357 356 355 356 357 357 357
357 363 363 365 364 363 362 360 360 360 358 359 357 355 354 351 353 356 353 357 356 357 355 354 351 351 352 352 349 349 356 351 353 351 354 354 360 363 371 372 371 371 372 372 371 371 369 369 368 368 367 366 366 366 367 366 366 365 363 360 360 361 362 361 359 360 361 362 361 360 360 359 360 360 358 357 358 356 355 356 354 355 357 357 357
358 363 364 362 362 362 359 361 357 359 360 358 358 358 356 355 354 356 360 360 357 356 356 356 355 351 352 349 349 352 350 354 349 346 344 352 361 363 369 373 372 373 373 372 372 370 370 369 368 368 366 367 367 367 367 367 366 365 364 362 362 362 362 361 360 360 361 361 360 360 360 359 360 360 359 358 358 358 356 355 355 356 358 357 357
358 359 359 359 358 356 357 358 357 358 359 358 356 357 361 361 362 365 363 362 360 357 357 353 353 350 352 348 348 348 347 347 344 343 346 356 365 365 369 370 376 375 373 373 371 371 370 368 367 368 368 368 368 368 367 367 366 365 364 364 363 363 362 361 360 360 361 360 360 360 360 360 360 360 359 358 357 358 357 356 356 357 357 356 356
360 361 360 356 356 356 355 358 359 359 357 356 358 363 361 361 361 362 360 360 357 356 352 351 350 350 350 348 347 346 345 347 348 347 349 358 363 363 366 369 369 372 371 371 370 370 370 369 369 369 369 369 368 367 367 366 366 365 364 364 363 362 362 361 359 359 359 359 359 359 359 360 360 360 359 358 357 358 357 356 356 357 357 356 356
362 361 360 356 357 357 356 356 358 360 360 359 356 358 358 360 356 357 355 356 351 353 348 348 347 347 350 346 348 349 349 344 346 350 351 355 359 366 365 369 366 371 373 372 372 371 370 371 371 369 369 368 367 367 366 365 365 365 364 363 363 361 359 358 359 358 358 358 358 359 358 359 360 360 359 359 358 358 357 357 356 356 356 355 355
364 361 360 357 355 354 355 355 358 359 357 359 358 360 360 359 356 355 354 351 350 352 350 349 346 346 348 350 346 346 350 348 350 352 353 359 358 361 365 365 363 370 369 369 372 372 371 370 370 369 368 367 367 366 366 365 365 365 363 362 359 358 357 357 357 357 358 357 358 359 359 359 360 359 359 359 358 357 356 356 356 356 356 356 355
366 365 358 358 356 353 353 358 361 359 358 359 363 361 360 357 357 356 351 348 351 349 351 348 347 345 347 350 351 352 350 351 351 351 353 356 357 363 365 368 371 371 369 368 371 370 371 370 369 368 367 366 366 365 365 364 362 361 360 359 358 358 357 357 357 356 357 358 359 359 359 359 358 359 359 358 357 358 357 356 356 356 355 355 355
365 366 360 358 356 356 355 356 358 357 358 357 357 359 356 351 359 360 359 354 348 346 347 349 345 347 347 347 350 356 354 356 354 355 355 357 359 359 364 368 370 366 366 366 370 369 371 370 369 368 367 366 365 363 361 361 361 361 360 358 358 357 357 357 356 356 357 357 358 359 360 359 360 358 359 358 357 357 357 356 355 355 354 355 354
365 364 362 360 360 359 357 358 359 359 358 356 358 357 358 355 356 359 357 356 351 349 345 345 343 344 349 348 352 351 353 357 359 357 357 357 359 362 363 364 366 366 366 367 368 370 370 369 368 367 366 365 363 362 361 361 361 360 359 358 358 357 356 355 355 355 356 357 358 359 360 359 359 359 359 358 357 357 356 355 355 354 354 354 355
364 365 363 359 358 358 360 361 359 358 357 356 357 358 356 356 353 356 360 358 356 354 350 347 343 345 346 348 350 356 357 354 358 358 355 355 358 362 362 366 365 366 367 367 368 370 372 372 372 372 368 364 362 361 360 359 359 358 358 358 357 357 356 356 355 355 355 357 357 358 359 358 359 358 358 357 356 356 356 355 354 354 353 353 353
365 364 364 361 358 358 360 359 359 357 354 351 351 356 357 357 355 351 355 354 353 353 351 349 347 348 349 349 351 353 353 353 355 355 359 359 360 363 363 364 367 367 366 366 369 367 370 372 371 367 365 362 360 359 359 358 357 357 357 357 356 355 354 355 355 355 355 356 356 357 358 358 358 357 357 357 356 355 355 355 354 353 354 353 353
363 363 363 363 363 360 361 360 357 356 355 353 353 351 359 357 357 360 350 351 349 348 348 348 346 344 346 347 350 352 352 354 351 354 355 359 360 361 361 364 365 368 368 366 367 368 368 372 370 368 366 366 361 361 360 358 357 356 356 356 355 354 353 352 353 353 354 355 356 356 357 357 357 357 356 356 355 355 354 354 354 353 353 354 354
363 365 364 362 362 357 359 357 356 356 356 358 358 360 364 360 352 353 351 347 348 347 350 347 340 339 340 341 345 349 351 350 350 352 355 356 359 362 363 362 362 366 366 370 369 370 368 369 370 369 370 368 366 365 363 361 357 356 355 355 355 354 352 352 352 353 353 354 354 355 356 356 356 356 355 355 354 354 354 353 353 353 353 353 353
363 364 363 361 360 359 357 358 360 358 358 359 359 361 359 354 357 349 346 349 347 347 350 350 342 344 344 338 336 338 350 348 351 350 350 354 356 358 360 362 361 364 367 370 369 370 367 367 368 369 370 370 367 365 363 355 358 356 356 354 353 352 352 352 351 351 351 353 354 354 354 355 355 354 354 354 354 353 353 353 353 353 352 352 352
360 359 358 359 361 360 357 357 362 362 358 357 355 354 358 355 351 352 354 346 342 345 352 353 348 343 337 339 338 334 331 343 346 350 351 351 354 356 358 361 362 364 368 368 365 369 369 369 370 370 369 367 366 363 361 356 355 354 354 352 350 351 351 351 351 350 350 350 352 353 353 353 353 353 353 353 353 352 352 352 351 351 351 351 351
362 362 361 361 364 363 359 359 359 360 357 355 355 349 348 350 352 355 355 347 341 346 349 349 349 350 342 337 339 337 340 338 338 345 348 348 353 353 356 356 360 361 362 363 364 369 367 367 369 369 368 367 363 361 363 361 360 360 357 352 350 350 351 350 349 349 348 348 350 350 351 352 352 352 352 351 351 350 350 350 350 350 350 350 350
360 362 360 363 365 365 365 361 360 359 357 353 352 348 349 350 352 353 347 351 350 347 344 350 347 352 348 344 344 334 334 340 336 334 353 348 349 350 357 357 359 359 361 362 365 368 367 368 369 369 367 366 363 360 359 357 358 357 356 353 350 350 349 350 349 349 348 347 348 349 348 350 350 350 350 350 350 349 349 349 349 349 349 349 349
358 361 362 364 366 366 367 364 359 358 360 358 355 352 347 346 348 349 351 353 356 351 347 342 349 350 347 347 347 347 345 339 338 338 338 347 351 349 354 355 357 358 358 360 365 369 368 367 366 366 366 365 360 359 360 356 353 356 353 350 350 349 349 349 349 349 348 347 347 347 347 347 348 348 349 349 349 348 348 348 348 347 347 347 346
357 360 362 363 364 364 366 365 360 359 356 355 353 352 349 350 354 358 359 359 359 352 348 343 341 345 346 347 349 349 348 345 347 341 337 337 342 350 353 354 355 357 360 360 363 367 368 365 364 363 364 363 362 360 360 359 357 355 353 351 349 349 348 347 347 346 346 345 345 344 343 343 344 345 347 347 347 347 347 347 347 347 346 345 344
356 358 361 360 362 360 362 362 361 361 361 357 355 353 352 355 359 359 360 359 357 354 353 350 346 342 348 352 348 347 347 349 347 346 340 337 335 336 343 353 353 356 358 360 362 364 367 368 366 366 366 365 364 362 359 358 356 359 352 350 348 348 348 347 346 345 345 345 344 343 342 342 341 341 342 344 344 345 345 344 343 344 344 344 344
355 358 359 359 359 361 358 358 359 358 358 357 358 357 356 360 361 359 359 358 359 355 354 351 350 349 350 351 352 350 348 344 345 344 344 347 338 337 339 340 341 352 358 356 360 361 365 368 368 366 364 364 364 363 361 358 357 356 352 349 347 346 346 346 345 345 345 344 343 342 342 341 340 340 340 341 341 342 343 343 343 342 342 342 343
352 354 354 356 356 358 356 355 357 360 359 358 357 355 356 357 359 360 360 359 356 357 356 357 355 355 351 349 349 346 347 346 348 344 343 341 339 339 340 342 340 339 356 360 360 361 364 369 368 363 365 365 364 364 360 358 360 355 350 349 348 347 346 345 344 344 343 343 342 341 340 340 339 339 339 338 338 339 340 341 342 341 341 340 341
354 352 351 351 353 353 357 356 357 358 359 359 358 358 358 359 359 361 361 362 361 360 359 357 356 356 355 350 351 350 348 348 347 347 347 346 344 342 338 340 342 344 355 362 362 361 362 366 368 365 364 363 365 366 362 360 356 354 349 349 348 346 345 345 343 343 343 342 341 341 340 339 338 338 338 337 339 338 338 340 340 340 339 338 338
353 351 350 351 352 354 356 354 356 360 363 363 360 364 363 359 361 361 360 362 360 360 356 355 355 353 352 353 351 350 348 350 349 346 346 348 346 342 341 343 340 340 351 355 359 362 362 362 366 368 366 364 365 365 361 358 358 353 349 351 348 347 346 345 345 344 343 342 341 341 340 339 338 337 336 336 337 337 337 338 338 338 337 338 339
351 352 350 350 350 353 357 357 361 364 365 366 365 366 367 362 363 363 360 363 363 363 361 359 358 358 355 350 350 349 349 351 352 349 347 346 345 344 345 345 346 341 347 353 358 353 361 363 365 368 364 363 363 364 362 358 357 352 352 352 348 347 346 345 345 345 343 341 341 341 341 339 338 337 336 336 336 337 337 337 337 336 338 340 339
352 354 353 351 351 353 354 357 360 365 366 366 361 366 368 366 365 365 364 362 365 363 360 358 354 355 356 353 351 349 348 350 351 351 350 347 346 346 346 344 343 343 343 349 358 353 351 362 362 362 363 363 365 364 362 359 357 353 352 353 350 348 348 346 345 344 344 343 343 342 340 339 338 338 337 336 336 336 336 336 335 338 339 339 338
356 354 350 351 351 352 354 355 358 359 362 365 364 363 368 364 363 364 363 360 363 364 361 358 356 356 355 356 355 352 352 351 350 351 351 352 351 351 350 348 343 340 341 340 344 351 359 359 362 363 364 363 365 365 363 358 357 355 352 352 351 349 348 347 346 344 344 344 342 341 341 339 338 338 337 337 336 335 335 337 338 339 338 337 337
353 355 351 352 352 353 354 353 354 356 359 359 358 361 367 366 362 364 363 361 360 362 361 359 359 355 352 354 354 353 353 355 353 351 353 354 352 350 349 347 348 346 344 340 343 343 355 357 356 362 364 364 365 364 361 359 357 355 352 350 353 351 347 346 346 345 345 343 342 342 341 339 339 338 338 337 336 336 339 339 339 339 337 336 335
354 352 352 350 351 353 353 354 355 355 356 355 356 357 364 363 361 362 361 360 359 362 362 357 356 356 354 351 352 351 353 353 351 352 353 355 354 351 351 351 353 348 347 344 344 347 352 355 357 359 364 364 362 361 362 359 357 354 355 352 352 351 347 346 345 344 344 344 343 341 340 340 339 339 339 339 338 337 337 337 337 335 334 333 332
356 358 356 351 351 351 355 354 355 356 358 356 357 357 359 360 358 354 359 360 358 359 362 359 355 353 354 351 351 349 350 350 351 350 352 353 353 353 353 354 354 355 353 350 344 349 356 348 351 357 360 364 360 361 359 360 357 354 355 355 353 351 348 346 345 343 343 342 342 342 341 341 340 340 339 337 338 338 336 335 334 332 330 331 330
356 355 356 354 352 351 351 351 351 354 355 355 356 357 357 358 356 352 354 357 359 359 356 354 356 357 355 352 352 351 351 351 351 349 349 352 354 352 354 355 356 357 355 353 350 347 352 350 353 358 363 364 363 360 361 359 358 353 358 355 354 351 347 348 344 343 342 341 341 341 342 342 340 339 338 337 337 338 337 334 332 331 331 331 330
360 356 354 357 356 352 352 354 352 354 356 357 357 358 358 358 356 357 357 357 358 360 360 357 357 356 357 355 355 354 355 352 350 349 348 348 350 353 355 354 353 357 355 355 350 347 351 352 353 358 362 362 359 360 358 360 359 356 354 356 355 349 349 348 347 342 341 340 340 339 339 341 341 338 338 337 338 337 336 334 333 332 332 331 330
358 356 356 356 356 356 354 353 354 354 355 359 358 356 355 356 357 353 353 357 359 361 361 360 361 359 356 357 358 356 356 354 352 349 348 346 346 347 351 351 353 353 354 350 349 346 345 350 348 361 358 361 358 361 358 357 359 357 354 354 354 351 349 349 347 345 340 340 339 338 337 338 339 339 338 337 337 337 335 334 332 331 331 330 329
359 357 356 356 358 356 356 354 354 354 356 357 358 357 355 356 356 355 355 354 356 356 357 359 359 361 360 359 357 359 356 354 353 353 350 347 346 346 348 349 351 351 351 352 350 349 346 347 351 351 359 361 358 360 360 358 359 356 353 351 351 351 350 349 349 348 339 339 337 336 335 335 336 337 338 338 337 335 333 333 332 331 331 330 328
356 357 356 355 355 357 358 356 355 356 355 355 356 357 356 356 355 357 357 356 356 358 358 358 359 360 362 360 359 358 359 357 355 355 354 351 349 349 348 350 351 351 352 352 353 354 352 347 351 350 359 361 361 362 362 358 357 355 353 353 352 349 348 348 348 348 342 338 337 336 335 334 334 334 334 335 335 335 333 331 327 327 326 326 326
358 356 355 356 356 357 354 355 356 356 355 355 356 355 355 356 357 355 356 357 357 357 357 359 359 360 359 359 358 359 358 355 357 355 354 353 351 350 348 350 350 351 353 355 355 354 355 351 351 354 360 362 362 360 360 355 355 354 355 352 351 349 348 347 348 345 342 337 337 335 334 334 333 332 332 331 331 330 327 326 326 325 324 324 325
359 357 355 355 354 355 355 355 356 356 357 356 356 357 356 356 356 356 356 356 355 356 356 355 356 358 357 358 357 357 358 356 357 357 358 357 354 352 352 352 352 353 355 359 359 358 360 356 354 352 360 358 358 359 359 357 353 349 351 351 351 350 348 346 346 344 344 341 340 338 335 334 332 331 331 330 329 327 326 326 325 324 323 323 323
358 357 356 356 356 354 354 353 355 356 356 356 357 358 357 356 356 356 355 354 355 354 355 354 355 357 359 357 358 360 361 361 359 358 358 359 358 357 356 356 356 357 355 355 358 360 359 356 354 354 355 358 359 355 358 359 355 351 346 345 343 345 345 345 343 343 342 340 340 339 337 336 335 334 330 328 327 326 326 326 325 325 323 322 321
356 356 355 356 356 358 355 354 356 357 357 357 359 358 357 356 354 354 355 355 354 354 356 355 355 357 358 359 361 362 362 363 363 363 362 359 360 358 357 353 356 357 358 356 356 358 359 357 353 352 353 355 358 359 358 355 351 351 348 344 340 339 340 344 343 340 341 340 338 337 337 336 335 333 330 329 328 327 327 326 326 326 325 322 321
357 357 356 355 355 354 355 355 355 354 355 355 357 357 357 356 356 354 354 354 353 354 355 356 357 357 358 358 359 360 362 364 365 365 365 365 362 359 361 362 361 359 358 359 358 358 357 357 355 356 354 355 358 355 350 347 345 344 347 345 343 343 341 339 340 341 343 339 338 338 335 334 332 331 331 331 330 328 328 327 326 326 325 322 321
358 358 358 357 356 354 354 355 355 354 356 356 358 358 357 356 356 353 353 354 356 356 355 355 355 357 358 359 359 359 363 365 364 361 358 356 355 358 359 361 363 362 360 359 358 354 350 354 355 354 351 350 353 355 350 349 349 350 348 344 341 343 342 338 338 338 340 339 337 336 335 334 332 331 330 328 329 327 325 322 323 323 324 322 322
357 358 357 356 355 356 355 353 353 352 350 351 354 346 347 353 357 355 354 354 356 355 356 353 356 357 356 355 359 359 362 361 362 356 356 355 354 352 351 351 355 359 357 355 355 353 351 355 350 352 351 350 351 355 352 349 350 348 348 347 344 344 338 332 330 336 341 339 336 334 333 335 333 330 330 328 327 324 321 318 322 322 323 322 321
356 357 356 356 355 355 355 354 354 352 353 358 339 342 344 344 350 354 352 352 353 355 357 357 355 355 356 354 359 361 360 360 362 362 358 355 351 351 351 350 349 348 349 355 356 353 353 348 351 349 349 351 350 355 353 353 352 350 348 348 346 342 339 334 335 334 338 339 334 332 331 335 333 331 328 326 323 322 320 320 322 322 322 322 321
355 355 356 356 354 353 353 353 352 353 354 353 344 341 341 340 341 350 352 354 355 355 356 359 361 360 357 356 354 357 358 356 358 359 359 359 359 354 350 350 350 349 343 342 346 355 355 355 349 349 348 351 351 351 357 356 358 353 349 346 346 344 342 337 339 340 342 339 337 333 329 333 334 331 327 323 321 321 319 324 323 322 321 321 321
354 354 354 355 354 354 354 354 354 354 355 355 341 339 337 337 337 345 354 356 356 357 359 359 358 358 358 355 355 355 357 358 358 358 358 358 357 356 359 362 361 359 352 346 344 345 350 356 356 352 355 355 351 355 362 362 355 353 350 347 348 345 342 340 344 344 346 338 334 331 329 330 331 328 326 322 322 320 323 321 320 321 321 320 320
355 355 355 354 354 355 354 354 354 353 353 345 337 335 333 332 333 342 354 354 355 357 358 358 357 356 358 357 356 355 356 355 356 359 357 357 358 357 356 355 358 359 360 361 362 362 361 360 359 358 358 359 362 360 359 363 355 355 355 354 352 351 350 348 346 346 344 339 337 333 325 329 330 326 324 322 321 319 321 319 319 320 320 319 319
356 356 356 355 355 355 355 356 356 356 357 339 334 334 331 330 334 349 353 353 353 355 356 357 357 359 359 357 352 357 353 356 354 354 355 358 357 355 353 353 355 357 357 357 348 352 363 365 365 363 362 361 351 364 365 363 359 357 357 359 354 349 346 341 338 337 336 336 339 334 330 328 329 326 324 322 320 319 320 319 320 320 320 319 318
355 355 356 355 356 356 356 356 356 355 356 341 330 331 329 329 337 351 354 354 354 355 356 358 358 358 359 359 359 356 356 357 343 328 336 350 353 352 352 352 353 355 354 357 346 337 337 336 337 339 338 336 335 333 331 332 345 351 360 357 346 345 338 335 337 336 334 336 336 337 333 330 327 323 320 321 320 318 318 318 318 319 318 318 317
354 354 354 354 356 356 355 355 355 355 355 345 326 326 326 327 340 352 354 353 354 356 357 356 356 357 359 354 355 356 354 357 326 324 327 345 350 351 352 353 352 353 353 356 357 355 336 332 333 334 334 335 335 334 334 331 330 337 347 346 348 344 339 336 335 336 337 338 336 338 334 328 322 325 320 319 319 320 318 317 317 318 318 316 316
354 355 353 353 353 354 354 355 351 352 353 348 324 325 322 322 336 350 350 351 351 352 353 353 355 355 355 354 353 349 345 332 317 319 321 336 346 348 350 349 348 350 352 356 355 354 356 359 359 356 352 346 353 355 354 343 337 337 348 347 348 342 338 339 338 339 337 338 340 340 332 328 322 322 319 313 311 315 318 317 316 317 317 317 317
Wind_Speed
5 5 4 4 3 3 3 3 2 2 2 3 2 1 2 2 2 2 2 1 1 1 1 2 3 2 3 3 3 3 2 4 4 4 4 3 5 9 8 7 8 10 10 11 11 11 9 9 9 9 8 8 6 6 7 9 9 9 9 10 10 9 8 9 12 8 7 6 7 8 7 5 5 6 7 6 5 4 3 5 4 4 5 6 8
4 3 4 4 3 3 3 2 3 2 3 2 2 2 2 2 2 2 2 1 1 2 2 2 3 3 2 4 3 4 3 3 4 3 2 4 6 8 9 9 11 11 12 12 12 12 11 11 12 10 9 7 7 8 9 10 10 9 10 10 9 9 10 11 10 7 8 9 10 8 8 8 8 7 6 5 3 4 4 5 4 4 4 5 7
3 3 3 4 4 3 3 2 2 3 2 2 2 1 0 1 2 1 2 0 1 2 2 2 2 3 3 3 3 3 3 3 5 3 4 7 7 6 9 11 12 13 12 12 12 12 12 12 12 11 10 9 9 10 11 11 10 10 9 9 9 10 11 9 7 7 8 8 8 8 8 8 6 6 5 4 4 5 5 5 3 4 4 7 8
3 3 3 3 3 3 3 3 3 3 2 1 2 2 2 1 2 0 1 1 1 1 1 2 2 2 3 2 2 3 4 4 4 5 5 9 6 7 5 9 13 14 13 12 12 13 12 13 13 13 11 11 11 11 11 11 10 10 10 10 11 11 10 9 8 9 8 9 8 8 8 8 6 6 5 5 5 7 6 5 6 6 8 8 8
4 3 3 3 2 2 3 2 3 2 3 2 2 2 3 3 3 2 1 2 2 1 2 2 1 1 2 2 3 4 4 2 3 4 5 7 8 8 5 6 8 14 13 12 14 13 13 13 13 12 12 11 11 11 11 11 10 10 10 10 10 10 10 10 9 9 9 9 9 9 8 7 7 6 5 6 7 7 7 7 7 7 8 8 8
3 4 3 3 3 3 2 4 3 2 2 3 5 4 3 1 2 3 2 2 1 1 1 2 3 2 2 4 3 4 3 4 4 5 5 6 8 8 5 5 6 5 7 13 14 13 12 13 13 12 11 11 10 10 10 10 10 10 10 10 11 11 11 10 10 10 10 10 10 10 8 8 8 6 6 8 8 7 8 7 8 9 9 8 10
3 3 3 2 4 4 4 4 4 4 4 4 3 3 3 3 2 3 3 3 1 1 1 2 3 2 3 2 4 3 4 5 4 4 6 5 10 6 5 5 6 3 5 4 10 13 12 12 12 11 11 11 10 10 10 10 11 11 11 11 11 11 11 11 11 11 11 11 11 11 9 10 9 8 8 9 9 9 9 9 8 9 10 10 10
4 3 3 4 3 4 5 4 4 4 3 3 1 3 3 2 2 1 1 1 1 2 1 1 1 2 2 2 4 3 4 4 5 6 6 6 7 7 6 5 5 5 5 4 6 9 12 11 11 11 11 11 10 11 11 11 11 11 11 11 11 11 12 12 12 12 12 12 13 12 11 11 10 10 10 10 10 10 9 9 9 10 10 10 10
5 4 3 4 3 3 4 5 5 4 4 5 4 3 5 6 2 1 2 1 2 1 1 1 1 2 3 4 5 5 5 4 5 5 5 8 7 7 7 6 5 5 4 4 4 5 10 11 11 11 11 11 11 11 11 11 11 11 11 11 11 11 11 12 13 12 13 13 13 13 12 11 11 11 11 12 11 11 10 10 11 11 10 10 10
5 4 3 2 3 3 3 5 4 4 4 4 4 4 3 2 4 2 1 1 1 2 2 3 2 2 4 5 5 4 4 4 4 3 4 6 5 5 5 5 5 4 5 4 4 3 5 10 13 12 11 11 12 11 11 10 11 11 11 10 11 11 11 12 12 12 13 13 13 13 12 11 12 12 12 12 12 11 11 11 11 11 11 11 10
5 4 4 4 4 4 3 4 4 4 5 5 5 4 3 2 2 4 1 1 1 2 3 3 2 3 4 5 4 4 3 3 3 4 5 7 3 3 5 4 4 4 3 3 3 3 4 3 3 5 7 11 11 11 10 11 11 10 10 10 10 11 11 11 11 12 12 12 12 12 12 12 12 12 12 12 12 12 12 12 11 11 11 11 10
5 5 4 3 4 4 4 5 5 5 5 7 6 5 4 3 2 1 0 1 3 1 2 3 1 3 2 2 3 3 4 2 3 3 2 4 4 3 4 4 2 3 3 3 2 4 4 3 3 5 5 8 10 10 10 10 10 9 9 10 10 10 10 11 11 11 12 12 12 13 13 13 12 13 13 13 13 13 12 12 11 11 11 11 10
5 5 5 4 3 3 4 4 5 5 5 5 5 4 3 2 2 2 2 1 2 3 2 2 4 1 1 1 2 1 3 0 3 2 2 2 3 3 3 2 2 3 2 3 3 3 3 2 2 6 3 4 6 9 10 10 9 9 9 9 9 9 9 10 11 12 12 13 13 14 14 14 13 13 14 14 13 13 12 12 11 11 11 11 10
5 5 5 5 4 4 4 5 5 5 4 3 3 2 2 3 2 2 5 2 2 3 3 4 4 3 1 0 1 2 1 0 0 3 1 2 3 3 2 1 2 3 2 2 2 2 3 2 2 4 2 2 3 5 7 8 8 8 8 8 9 9 8 9 11 11 12 13 13 14 14 15 15 14 15 15 15 14 14 13 13 13 14 14 14
5 5 5 6 5 3 5 5 5 5 5 5 5 3 3 4 3 3 3 2 4 3 1 4 6 2 1 2 3 3 4 2 1 1 1 1 1 3 1 3 2 1 2 2 2 2 3 3 3 3 3 2 2 3 5 7 7 8 8 8 8 8 8 8 9 10 12 13 13 13 14 14 15 15 15 15 15 15 15 15 15 15 15 16 16
7 7 6 5 4 4 5 4 4 4 4 4 4 5 4 3 5 4 2 5 5 4 2 1 5 4 4 2 4 3 5 2 1 3 1 0 0 1 2 2 3 2 2 2 3 2 2 2 3 3 3 3 2 3 4 5 8 8 7 8 8 7 8 8 8 9 10 11 12 13 13 13 14 14 14 14 14 14 14 15 15 16 16 15 16
6 6 5 5 4 4 3 4 4 5 5 5 5 6 7 6 3 2 3 5 5 4 2 4 3 1 5 4 4 4 2 5 6 1 2 1 2 1 2 2 2 2 1 2 3 1 2 2 2 2 3 2 2 2 2 5 5 5 7 7 8 7 7 8 8 8 8 9 10 11 12 12 12 12 13 13 13 12 12 13 14 14 15 15 14
6 6 6 5 5 4 4 4 5 4 4 5 5 6 4 5 5 6 6 6 6 5 6 4 4 2 3 5 4 6 5 5 5 3 3 2 2 1 1 3 2 3 3 2 2 2 1 2 2 2 3 2 1 1 2 3 2 2 4 6 6 7 7 7 8 8 8 9 9 9 10 10 11 11 11 11 11 12 12 12 14 14 14 14 14
7 7 6 5 4 4 4 4 4 5 5 4 5 6 6 7 6 4 5 4 1 5 6 7 3 3 5 4 4 5 6 5 5 5 4 1 2 2 2 2 3 3 1 3 3 2 2 2 3 2 3 1 1 1 2 4 8 9 11 8 6 7 7 7 7 8 8 8 8 9 9 9 9 10 11 11 11 11 12 13 13 13 13 13 12
7 7 6 7 6 5 5 5 5 5 5 5 6 6 6 5 2 3 4 3 4 5 6 7 5 4 5 4 4 4 4 6 5 5 6 5 3 2 1 1 2 2 5 4 5 4 3 2 3 2 2 2 1 1 2 3 4 4 6 7 6 6 7 7 8 8 8 8 8 9 8 8 8 9 10 11 11 11 12 12 12 13 13 13 12
8 7 8 8 7 6 6 6 6 6 5 6 6 6 6 5 4 4 5 5 5 6 5 6 6 7 2 3 5 6 5 3 4 5 5 6 5 5 3 3 3 2 2 3 5 3 5 3 0 2 3 2 2 1 2 2 3 3 7 8 7 6 7 7 7 7 8 8 8 8 9 8 8 7 8 9 9 10 10 11 10 11 12 12 12
9 9 8 8 8 8 7 8 8 7 6 6 6 6 5 5 5 7 7 7 5 5 6 6 6 6 5 2 3 5 5 6 5 5 5 3 6 6 5 4 4 2 3 3 5 3 5 4 4 4 3 3 3 2 2 3 3 3 8 9 8 7 7 7 7 7 7 8 8 8 8 8 8 9 8 8 9 9 9 9 10 10 11 12 12
8 9 9 9 9 9 9 9 9 8 7 6 7 7 7 7 7 7 5 5 5 6 6 5 6 4 7 5 5 7 5 5 4 5 6 7 7 6 6 4 4 3 4 3 2 4 4 4 5 5 3 4 4 3 3 2 2 7 14 9 9 8 8 8 8 8 7 7 8 8 7 7 8 8 8 8 8 8 8 9 10 10 10 11 11
8 7 8 10 9 9 10 10 9 8 7 7 7 7 7 6 6 5 5 7 6 5 6 6 7 5 7 7 6 6 6 5 6 5 4 5 5 7 7 6 5 4 3 4 3 3 4 5 5 5 4 3 4 4 3 3 5 13 9 11 9 9 9 8 8 9 8 7 7 8 8 7 7 7 8 8 8 8 9 10 9 9 9 9 10
8 8 8 9 8 9 9 9 9 8 7 6 6 6 6 5 5 5 6 6 6 6 6 7 7 7 6 6 6 6 6 6 6 6 6 4 5 7 6 6 6 5 3 4 4 4 5 5 5 5 4 4 4 5 4 4 5 11 8 11 10 10 10 10 9 9 9 8 8 8 8 8 7 7 7 7 8 7 8 8 8 7 8 10 12
9 8 8 9 9 9 9 10 9 8 8 7 6 6 6 6 5 6 7 6 6 6 6 7 7 7 7 8 7 7 7 6 6 6 6 6 6 5 6 5 5 6 3 4 3 4 5 4 5 5 5 5 5 6 5 5 6 15 12 7 10 10 10 11 11 10 10 9 9 8 8 8 7 7 7 7 7 7 7 8 8 8 10 11 12
9 8 8 8 8 8 9 10 9 9 8 8 8 7 6 6 6 6 7 5 5 6 7 8 7 7 7 7 7 7 8 6 6 6 6 7 7 6 5 6 6 6 6 4 4 7 3 5 5 6 6 6 5 5 6 5 8 17 13 8 8 11 9 11 12 13 12 11 10 10 9 9 8 8 7 6 7 7 7 7 8 10 10 10 10
7 8 8 8 8 8 9 10 9 9 10 9 9 8 8 8 7 7 7 6 6 8 7 8 8 8 8 7 7 7 7 7 7 6 6 6 6 6 6 6 6 7 6 6 6 4 2 1 4 5 6 6 6 6 6 6 6 19 15 9 8 10 11 11 12 13 13 13 12 11 11 10 9 9 8 7 7 7 7 7 9 9 9 9 9
7 7 8 8 8 9 9 9 10 9 9 10 10 9 8 8 8 8 8 8 8 7 7 7 7 8 8 9 7 7 7 6 6 7 6 5 6 7 7 7 6 6 6 8 5 6 6 3 2 5 7 7 6 6 7 7 9 14 8 9 7 9 12 12 11 11 11 12 12 12 12 11 11 10 10 9 8 7 8 9 9 9 8 8 8
7 7 7 8 8 9 9 8 8 10 10 10 11 11 10 8 9 8 8 8 8 6 7 8 8 7 8 8 7 8 7 8 8 8 7 5 7 6 7 6 5 7 6 7 7 7 3 6 6 5 7 8 7 6 6 7 12 14 8 9 8 8 17 13 11 10 10 10 11 12 13 12 12 12 11 10 9 8 9 9 9 7 7 6 7
7 7 7 8 8 10 9 10 9 9 9 10 10 10 11 10 9 10 9 8 8 8 7 7 7 8 8 8 8 8 8 8 8 8 7 7 7 7 7 6 5 6 6 6 8 5 5 5 8 5 9 9 7 6 7 7 11 14 9 8 9 10 19 13 12 11 10 11 11 11 13 14 13 12 12 10 11 10 9 8 7 7 6 7 7
10 9 8 9 9 10 10 11 11 11 11 10 10 10 10 10 10 11 9 10 9 9 9 9 7 7 8 9 9 8 8 8 8 9 9 8 8 8 7 6 6 6 6 6 8 9 6 7 6 5 7 7 7 7 7 7 8 14 9 8 5 12 12 9 14 13 12 12 12 11 11 11 12 13 12 12 12 12 10 9 7 6 7 7 7
3 6 10 10 10 11 10 10 11 10 9 9 9 9 9 10 10 10 10 9 9 9 8 9 9 9 8 9 9 9 9 9 9 9 9 9 9 9 7 8 8 7 7 7 9 9 8 7 6 6 5 7 7 8 8 8 8 9 9 9 8 9 9 9 10 14 13 13 12 12 11 9 11 13 13 13 13 13 12 10 9 9 9 8 8
2 2 4 6 9 11 12 12 11 11 10 10 10 9 10 10 11 10 11 11 10 9 8 9 8 8 8 9 9 10 10 10 10 11 10 10 10 10 9 9 8 8 7 7 8 9 9 7 7 7 7 8 7 9 8 10 9 9 9 10 9 9 10 9 10 11 17 14 13 13 11 10 11 11 12 14 14 13 12 11 11 10 9 8 8
5 5 6 8 9 12 11 12 12 11 11 11 10 10 9 10 11 11 10 10 11 11 11 10 10 9 9 9 10 9 9 10 10 10 11 11 11 11 11 10 10 8 8 8 8 9 10 9 8 8 8 7 8 7 8 8 9 10 10 12 10 9 9 11 10 9 17 15 15 14 13 12 10 10 11 10 12 12 12 12 10 8 9 10 10
9 9 10 10 9 7 12 12 12 11 11 11 10 10 11 11 11 10 11 10 10 10 10 10 10 9 9 9 10 10 10 10 10 9 9 10 10 10 11 10 10 10 8 9 9 9 9 10 8 9 7 7 7 6 7 7 9 10 10 9 10 11 11 11 11 9 13 18 15 14 14 13 12 12 11 10 10 11 10 10 12 12 12 11 10
9 8 9 10 10 8 10 13 12 12 12 12 11 11 11 10 11 11 11 11 11 11 11 10 10 10 10 10 10 10 10 11 10 10 10 11 10 10 11 10 9 9 8 9 9 9 9 10 9 8 8 7 6 7 7 8 8 7 8 10 10 11 11 10 8 10 11 19 14 14 13 13 13 13 12 12 11 11 12 13 12 12 12 11 10
8 8 9 10 10 10 12 13 14 13 12 12 12 12 12 11 11 11 11 11 11 11 12 12 11 11 11 10 10 10 10 10 10 10 10 11 10 11 11 10 9 8 9 8 8 9 9 10 9 9 8 8 8 7 8 8 8 9 9 9 8 9 9 7 9 10 8 9 10 11 10 11 13 12 12 11 12 13 13 13 12 12 12 11 10
7 8 8 10 10 11 11 12 14 12 13 13 12 12 12 11 11 11 11 12 12 11 12 12 12 11 11 11 10 10 10 9 10 10 10 10 10 11 11 10 9 10 10 10 9 10 10 10 10 10 9 8 8 8 7 7 8 8 11 10 11 10 10 10 10 11 7 8 13 14 14 14 13 13 12 13 14 13 12 11 11 12 11 12 11
9 10 11 11 11 10 11 12 11 12 11 12 12 12 12 12 12 12 11 12 12 12 12 12 11 11 10 10 9 9 10 10 10 10 10 10 9 10 9 11 10 10 9 10 10 10 11 11 11 10 10 9 9 8 6 7 7 7 9 11 11 10 11 9 11 12 11 8 11 12 9 9 10 12 12 12 12 12 13 13 14 15 15 12 12
8 9 10 11 11 12 11 10 8 8 9 13 12 11 12 13 12 12 12 12 12 12 12 11 11 10 10 10 11 11 11 12 12 10 9 7 7 9 9 9 9 9 9 8 7 9 9 12 10 10 10 9 9 8 9 10 13 14 11 11 10 10 9 10 11 11 8 10 12 12 12 12 12 11 9 10 9 13 14 14 14 17 17 13 13
7 6 8 9 10 11 11 10 10 8 7 7 10 11 11 11 12 11 11 11 11 11 11 11 11 11 11 11 11 14 12 11 11 12 13 14 13 12 10 9 9 8 9 9 7 8 10 14 11 11 12 12 11 11 11 12 11 10 10 11 12 10 9 9 9 12 11 13 12 12 11 11 12 12 12 14 12 13 10 11 11 13 16 15 13
7 7 7 8 9 8 9 10 9 9 9 7 4 6 8 8 10 11 10 10 10 10 10 11 11 10 11 12 12 11 11 12 12 14 14 14 15 16 17 17 15 11 10 11 11 8 13 10 10 13 12 13 13 11 12 12 12 12 12 12 11 8 11 11 10 9 10 13 14 12 12 12 12 13 12 13 12 11 12 12 14 15 16 16 15
7 7 8 8 7 7 8 9 9 9 9 2 5 6 5 5 6 9 11 11 10 9 10 10 10 9 11 12 8 7 9 10 9 8 11 15 17 17 17 17 17 18 17 13 11 10 9 9 10 8 13 11 13 12 12 12 12 13 13 12 11 11 13 12 12 12 12 16 14 13 13 12 13 14 12 13 11 12 13 13 16 17 16 16 15
7 8 8 8 8 8 9 9 10 11 11 10 5 3 3 3 3 6 8 9 9 9 9 9 8 7 8 5 7 6 5 11 10 9 11 10 12 16 18 18 18 18 17 18 18 16 13 10 8 11 10 10 11 14 13 12 12 13 13 13 12 12 13 13 13 12 10 16 12 11 13 11 11 12 14 12 12 11 11 14 18 18 17 16 14
7 8 8 8 8 8 8 9 9 9 10 10 11 10 9 8 7 6 7 8 8 9 9 9 9 9 10 10 8 7 8 9 9 8 8 8 10 12 12 11 11 14 17 19 20 21 18 15 14 13 11 11 12 13 12 8 7 12 12 14 15 15 14 16 13 11 7 15 16 13 10 11 12 13 14 11 11 11 8 16 21 18 18 18 17
7 7 6 7 7 8 9 9 8 8 8 10 11 11 11 10 9 7 8 8 8 9 9 9 10 11 11 11 10 9 9 10 10 9 10 9 9 9 11 13 13 13 12 11 11 11 12 13 16 17 17 16 14 14 14 6 9 13 14 14 13 12 12 12 8 9 7 13 15 12 13 13 14 14 13 11 11 10 8 14 20 19 19 18 17
5 5 6 7 7 8 8 7 7 7 5 4 9 9 8 9 7 6 8 8 8 9 10 10 10 8 7 7 10 9 10 8 11 10 5 6 10 12 14 15 14 13 13 12 11 12 13 12 13 15 14 16 16 14 12 8 6 13 12 8 5 3 8 9 12 7 8 10 15 14 12 13 15 15 12 10 10 9 9 9 16 19 19 18 18
6 6 6 6 6 7 7 7 6 6 5 5 6 5 5 5 4 7 9 9 9 9 9 10 9 9 9 8 8 9 7 8 6 8 6 5 11 13 13 14 13 13 13 11 12 15 16 16 17 17 16 15 15 15 14 11 11 12 9 7 7 9 7 9 10 8 12 11 12 15 13 9 13 12 9 9 9 10 10 10 10 15 17 18 18
5 5 4 4 5 6 6 7 6 5 6 5 7 6 6 6 7 8 7 6 8 8 9 8 8 8 9 9 8 9 10 5 9 6 7 6 9 12 13 14 15 15 14 12 10 8 9 15 17 16 16 17 17 17 16 12 4 6 12 16 6 8 10 13 12 14 11 13 15 14 9 8 11 8 9 7 6 5 7 8 11 14 18 17 18
3 3 4 4 4 4 4 5 3 6 6 4 9 8 7 8 5 6 5 7 8 8 8 8 8 7 7 8 4 6 5 6 7 6 6 6 8 9 12 13 14 15 13 12 11 11 9 8 7 8 11 13 12 11 12 17 13 13 11 14 5 7 7 12 13 10 8 12 13 17 15 10 11 11 12 11 9 7 7 9 11 10 11 12 13
Wind_Direction
171 163 160 161 166 175 192 178 148 150 162 184 171 172 223 179 162 200 148 226 203 150 340 285 292 276 322 314 339 331 3 334 347 348 346 20 67 71 68 72 87 82 77 71 69 66 66 66 65 60 55 52 47 42 48 58 65 72 69 59 52 43 50 41 46 29 9 8 10 21 36 13 29 41 43 42 70 47 42 49 58 65 52 74 73
162 146 155 156 167 182 176 172 164 155 195 154 152 187 183 158 155 198 107 170 236 78 293 319 294 335 330 324 332 339 356 345 341 349 330 53 76 90 74 85 82 76 68 65 65 66 65 70 69 66 63 61 58 62 71 73 72 71 74 66 53 50 45 41 33 17 11 17 15 12 15 28 34 44 47 35 68 72 62 64 62 59 47 81 92
152 155 152 164 170 183 169 158 177 168 157 176 156 218 129 207 115 96 133 47 318 29 296 300 320 289 11 313 344 327 353 0 307 12 17 57 70 78 82 77 75 69 65 63 64 65 65 65 67 66 66 68 69 71 70 68 65 64 68 75 63 53 53 49 43 34 30 22 19 8 12 28 30 43 48 75 99 79 86 80 79 63 50 86 80
145 170 169 176 170 165 153 184 168 162 166 157 156 141 192 160 91 286 359 258 232 225 276 277 310 334 317 342 327 335 6 351 339 39 55 70 99 79 83 90 75 65 63 62 66 65 63 67 69 67 69 70 73 73 70 67 63 62 58 55 54 57 59 52 41 33 30 26 22 13 11 24 37 50 64 84 88 86 98 93 85 79 91 84 82
158 169 164 187 164 164 176 169 163 164 166 173 127 184 185 180 161 170 187 216 216 199 241 267 250 357 300 336 348 3 349 11 27 38 58 120 85 96 99 69 75 84 66 61 66 67 70 66 66 70 72 72 70 71 71 67 65 64 63 61 60 61 58 51 44 40 36 33 31 25 18 22 41 58 68 81 88 93 102 103 90 90 91 88 83
167 162 201 163 173 187 186 163 137 170 136 186 175 177 151 183 152 178 151 230 186 118 311 311 347 316 350 359 342 8 342 38 38 54 58 67 110 88 65 70 65 47 80 75 67 68 67 70 73 74 74 73 71 69 70 68 68 69 71 68 64 59 55 50 46 42 41 37 35 31 31 35 46 64 76 89 94 92 95 94 90 87 90 90 85
173 168 183 196 179 173 173 169 152 159 174 164 199 148 160 184 149 201 167 187 198 99 297 350 338 348 19 344 6 15 17 42 40 62 72 78 72 87 84 87 81 70 53 66 89 76 77 76 75 75 78 77 74 72 70 71 71 73 69 64 59 56 54 49 45 43 44 41 38 39 45 50 60 74 79 84 90 89 86 89 93 92 89 88 85
171 186 191 185 197 157 169 132 150 184 167 148 211 184 155 169 132 234 144 28 310 206 172 21 359 11 48 37 56 31 46 30 40 40 41 55 75 92 101 77 79 73 65 58 68 78 82 83 81 82 81 79 76 74 74 72 70 68 66 63 60 55 52 48 45 43 44 41 40 41 50 61 68 76 83 89 91 93 93 92 91 89 89 84 81
175 181 199 190 184 185 148 158 167 182 168 178 184 173 199 145 131 81 53 263 273 324 78 229 120 69 76 63 71 53 46 38 35 53 62 42 29 92 91 96 86 88 72 61 75 91 90 90 89 88 83 82 80 75 73 74 74 70 69 66 61 57 52 48 45 43 44 42 41 45 55 63 72 78 84 86 88 88 89 87 85 84 83 83 84
178 179 215 215 190 193 172 144 169 182 187 182 190 166 165 181 144 137 74 260 296 334 20 351 55 58 72 73 56 62 76 64 51 36 85 110 122 78 71 72 81 68 66 56 58 88 91 106 109 92 81 82 81 78 76 74 73 71 68 68 64 60 57 52 49 46 47 45 45 49 57 64 72 78 82 84 86 90 90 92 93 91 88 85 82
179 188 197 199 195 174 200 158 197 182 188 184 185 161 178 120 222 136 203 315 344 320 10 308 40 33 51 65 78 77 62 66 51 41 39 76 71 104 91 78 71 80 76 69 96 81 82 79 87 84 87 84 83 81 76 70 68 70 70 67 63 59 57 57 53 51 51 50 50 56 59 64 68 76 81 84 86 88 90 90 89 88 87 86 81
182 190 204 212 200 178 187 171 193 187 189 194 170 172 157 165 201 83 250 228 201 264 256 279 240 101 59 90 67 55 50 27 62 67 75 71 61 50 93 96 95 73 66 90 35 80 73 76 96 79 78 97 97 91 84 76 71 69 69 65 64 61 61 61 60 58 58 56 58 61 62 64 70 74 79 82 82 82 84 84 84 84 81 79 79
187 200 195 195 209 196 182 189 187 183 184 189 198 163 110 267 125 238 243 201 267 228 196 311 314 181 224 132 126 96 111 8 34 50 74 96 109 102 86 132 119 101 92 55 54 50 81 87 89 102 117 111 113 103 100 91 80 75 71 68 63 63 65 65 64 64 63 63 65 65 67 69 73 77 79 81 82 84 84 84 85 85 83 81 80
195 200 204 199 190 187 184 174 189 177 178 178 146 136 185 236 234 215 223 232 271 276 15 295 229 266 317 290 171 174 36 267 248 102 119 114 125 118 144 146 107 120 107 85 97 161 119 110 91 78 86 91 113 131 142 120 94 76 74 73 71 70 68 68 69 66 67 67 68 69 72 74 73 75 78 79 81 83 84 86 88 87 85 83 84
201 201 200 201 192 195 187 169 192 160 175 182 177 195 203 209 209 250 293 207 237 254 253 278 304 16 331 274 255 277 164 203 155 69 2 54 131 126 161 119 103 82 100 147 122 79 44 47 67 83 89 92 81 94 86 73 79 84 78 73 72 72 74 76 75 71 70 68 69 72 73 76 78 79 79 79 81 82 84 85 86 86 86 86 89
198 199 201 193 189 197 203 170 179 187 191 200 202 212 193 224 235 212 220 272 249 220 179 219 286 320 274 318 322 304 303 158 288 112 328 20 297 173 160 133 148 145 175 177 118 91 106 110 93 89 95 90 84 87 86 83 114 102 84 79 77 74 77 81 76 75 75 73 72 72 73 75 77 80 81 82 84 86 87 87 87 87 87 87 87
196 200 207 179 188 209 208 191 192 195 204 202 219 225 215 226 222 287 243 265 268 272 248 258 236 331 303 286 273 266 356 335 331 44 329 256 146 243 87 277 160 144 202 101 60 13 132 115 110 104 96 104 92 78 95 136 133 111 112 91 82 82 84 83 82 79 79 77 76 75 74 74 76 80 84 86 85 85 86 89 91 89 89 89 90
201 201 198 184 185 198 200 214 202 201 222 232 222 225 237 247 218 223 234 226 257 272 269 195 268 142 269 265 285 299 309 334 314 336 229 318 301 244 145 221 149 187 181 117 115 188 126 138 127 122 112 95 52 108 92 108 149 140 92 95 92 91 90 86 85 82 78 78 79 78 78 78 76 80 84 85 87 88 89 89 87 87 91 93 89
200 201 193 189 193 196 200 219 220 216 213 228 234 239 231 221 239 218 241 263 267 272 265 269 211 251 246 250 282 287 303 298 325 305 301 181 292 312 168 172 217 165 188 129 161 174 191 174 149 164 111 112 259 66 111 63 44 69 78 106 104 97 94 93 89 88 84 82 81 82 81 80 82 83 86 88 91 92 92 91 90 90 89 87 90
214 198 201 190 199 202 205 220 221 229 220 222 231 236 241 243 228 261 278 266 246 253 262 267 260 230 255 296 270 257 265 280 260 315 311 301 305 204 216 178 213 190 173 169 172 174 196 188 157 156 131 155 221 159 79 106 129 145 133 120 117 110 103 99 95 92 90 85 84 81 81 87 93 90 88 90 91 95 94 93 94 92 94 95 95
215 209 202 208 200 213 210 218 219 227 229 231 231 232 237 239 229 234 228 232 234 240 255 262 271 271 251 236 274 287 289 289 286 258 285 313 306 303 294 151 254 184 181 203 157 192 149 178 130 128 154 192 197 195 161 148 173 136 131 139 130 129 119 109 103 99 96 94 92 91 92 90 89 97 99 95 95 96 97 96 99 100 98 99 96
206 216 215 212 212 211 215 215 220 222 228 237 236 236 233 230 228 234 234 235 234 239 233 248 256 273 275 244 249 276 285 288 290 287 268 232 280 301 305 298 280 169 178 214 153 190 145 164 172 192 186 173 195 193 199 173 149 187 135 143 146 138 132 123 117 110 105 105 103 104 100 95 94 98 100 97 98 95 99 101 103 106 107 106 106
209 207 222 222 222 220 223 219 220 216 222 236 236 233 220 218 225 220 232 239 235 238 246 254 258 264 265 264 260 259 254 267 275 297 303 295 299 293 290 299 304 299 190 164 174 168 152 174 183 218 167 175 198 200 187 203 182 101 130 158 154 150 142 137 129 126 118 111 115 112 113 108 104 99 101 106 107 107 100 103 107 107 111 108 104
217 216 210 220 220 218 221 225 215 220 215 225 234 229 235 225 223 208 206 214 231 241 249 243 249 238 253 260 254 264 270 267 274 263 238 271 292 299 300 296 277 297 136 152 200 172 177 182 196 219 193 193 185 198 185 199 145 128 159 159 165 159 153 147 142 134 131 126 121 117 113 115 114 117 114 111 105 106 112 110 111 108 111 116 113
221 222 216 222 220 213 217 216 211 213 221 221 229 243 252 248 222 214 223 209 217 227 227 237 243 259 261 259 265 269 274 279 276 273 288 291 270 278 282 300 296 291 228 209 180 196 191 187 190 206 210 199 184 185 204 194 171 162 194 156 177 168 161 157 149 145 142 140 135 129 124 122 123 117 114 118 122 116 115 114 113 116 118 119 116
221 224 235 222 220 211 211 212 211 206 209 217 227 226 231 243 230 225 230 217 231 225 239 247 247 253 257 266 268 272 273 274 274 273 275 272 268 278 292 283 284 285 275 242 226 223 185 201 188 183 208 208 196 192 204 203 171 156 204 180 173 179 172 164 160 157 152 152 151 148 139 133 134 131 123 129 134 135 125 121 122 123 122 124 121
221 223 224 237 227 216 205 209 205 209 209 212 215 215 214 227 242 229 241 221 224 238 234 240 244 242 252 261 271 268 274 273 272 277 274 278 283 285 288 289 283 283 278 253 207 252 276 179 178 182 209 209 216 199 207 220 164 156 187 207 172 177 183 175 170 167 166 163 164 158 155 152 143 137 138 136 134 137 145 148 142 130 128 125 121
227 224 218 224 226 221 206 213 213 210 214 217 221 217 203 217 224 226 231 240 220 224 239 250 251 251 253 259 263 269 272 272 272 276 276 277 280 285 282 278 282 282 282 285 274 239 160 198 192 186 205 212 205 205 212 215 179 159 179 215 174 170 186 186 182 177 175 170 169 169 167 164 155 150 146 149 148 153 146 138 133 136 134 130 123
244 221 228 218 221 220 222 217 208 218 220 220 221 220 211 212 217 219 232 234 232 226 240 245 258 261 251 243 247 254 258 264 269 267 269 282 286 285 278 277 279 279 277 276 288 289 126 257 261 205 212 209 211 207 196 222 163 161 186 218 184 177 181 193 188 184 183 175 176 175 175 172 169 161 157 159 165 159 149 153 147 144 140 137 135
232 242 230 220 212 221 229 228 226 216 219 220 218 219 219 222 222 223 224 236 239 231 232 245 248 249 255 259 256 253 247 250 249 253 258 255 256 261 262 258 249 258 271 278 277 276 179 198 214 220 185 212 213 204 212 216 158 177 201 214 212 201 160 191 187 188 189 173 180 185 183 179 176 176 166 169 171 171 162 164 161 156 157 157 149
227 227 243 238 214 213 222 227 222 227 219 225 223 221 220 225 225 231 227 226 236 239 237 238 245 255 259 258 257 262 267 269 269 267 263 250 245 253 270 265 258 262 261 265 273 264 279 239 236 231 185 205 212 203 214 224 168 183 212 205 225 157 154 181 188 188 191 179 186 194 194 192 185 181 180 171 173 177 176 181 176 178 174 163 160
225 216 229 236 240 225 214 221 228 220 219 219 222 220 221 226 228 231 233 233 226 233 242 244 242 240 245 251 256 262 265 261 260 259 260 256 258 262 255 251 247 246 253 257 259 273 270 276 274 249 195 196 213 207 213 222 165 182 218 208 179 127 166 178 185 192 189 188 190 198 210 206 192 186 184 180 177 181 182 188 176 176 177 163 155
6 297 249 233 230 243 238 229 226 225 223 227 223 224 219 223 227 236 239 233 226 232 235 244 249 248 247 256 260 259 262 262 261 260 254 253 251 248 248 250 248 243 241 244 258 271 274 271 278 262 212 207 206 214 211 210 203 188 210 214 160 175 195 209 192 192 195 192 196 203 212 203 193 197 190 185 182 184 186 177 176 175 177 169 165
227 260 278 274 256 235 237 233 234 229 221 219 226 223 224 220 223 223 226 228 232 235 244 245 239 247 254 250 250 253 248 250 256 258 256 253 248 247 244 243 242 243 241 247 258 265 270 266 262 258 248 202 234 196 214 210 215 193 194 213 198 184 215 211 206 188 193 195 199 199 195 190 193 200 197 187 185 184 184 178 168 176 173 171 141
200 224 254 253 246 256 241 235 232 233 229 223 220 226 227 225 225 232 237 228 225 229 230 234 240 240 245 248 247 246 250 250 248 248 252 252 251 251 249 247 249 247 239 239 245 252 260 264 262 261 245 218 232 208 213 219 214 199 205 213 206 204 211 216 215 207 176 193 196 191 186 185 188 192 192 195 188 183 180 179 165 140 128 122 129
215 215 223 233 241 239 258 242 235 234 233 229 226 223 223 227 227 226 232 237 235 230 232 236 236 235 238 244 247 250 250 253 256 259 255 254 254 254 256 254 253 256 259 250 234 243 255 265 259 263 251 225 221 220 206 210 215 204 211 209 212 210 212 214 219 211 175 188 191 192 188 183 183 184 186 190 184 184 175 141 132 134 135 139 145
212 217 218 227 229 222 229 239 235 231 231 232 230 231 229 224 227 230 229 229 231 234 237 238 242 245 249 249 250 252 253 254 249 250 252 252 251 255 253 249 250 248 246 246 247 240 247 253 258 254 249 232 225 231 214 216 199 195 201 215 211 212 212 213 211 216 172 178 185 194 191 186 183 182 183 187 180 154 141 143 142 143 146 150 158
209 215 224 224 224 222 226 232 235 227 227 230 230 232 233 231 228 228 231 230 233 235 236 237 238 238 243 248 253 255 257 256 257 256 257 259 261 257 256 262 260 256 248 245 245 243 244 249 254 256 239 233 229 227 221 216 207 204 208 216 213 215 206 201 207 212 195 182 194 198 193 191 188 183 180 171 156 152 151 149 150 150 153 157 161
211 218 223 232 232 230 232 235 238 235 227 226 228 226 231 236 236 230 232 233 235 238 241 240 241 241 241 244 245 247 251 256 257 258 259 256 250 261 271 265 258 257 254 249 243 238 237 246 249 249 251 237 222 222 205 201 213 211 212 209 212 213 216 213 204 214 189 185 211 209 212 209 192 187 167 164 161 157 153 151 153 155 155 160 160
223 225 229 233 236 239 238 235 232 237 239 231 225 227 226 229 234 234 232 238 240 239 242 244 243 244 244 245 245 248 247 245 246 249 252 256 256 250 248 259 261 258 258 256 252 246 240 244 249 250 245 242 222 224 205 198 206 215 215 212 211 204 212 214 210 209 209 192 209 208 189 180 179 183 156 162 161 159 160 162 165 164 162 160 163
229 233 235 237 242 243 244 246 248 250 246 242 234 225 224 226 232 235 237 236 239 244 244 245 245 246 248 247 246 247 245 243 248 255 262 275 263 257 249 249 256 254 252 265 272 281 272 256 250 245 245 234 213 205 201 202 208 215 211 217 222 214 205 205 211 215 211 201 213 214 207 209 208 200 189 189 177 170 173 183 177 175 169 163 164
229 232 234 237 240 240 239 243 243 244 250 259 257 249 241 237 228 236 238 241 244 246 247 248 251 251 248 252 258 256 244 238 234 237 244 250 254 258 267 264 253 258 260 243 246 247 261 254 245 253 247 245 234 210 212 211 217 219 215 212 220 217 199 204 207 210 206 207 212 213 211 205 206 203 205 208 192 183 187 193 192 187 173 165 162
229 231 232 234 236 240 243 243 241 242 239 235 326 298 247 259 257 242 240 243 244 248 252 255 257 263 271 269 260 254 247 237 237 235 241 244 243 244 246 249 256 251 250 262 252 245 253 261 264 252 256 259 254 233 217 220 215 217 220 215 221 211 200 193 204 208 204 201 211 209 213 204 204 209 204 213 200 189 199 197 185 175 167 166 164
224 225 226 224 227 230 232 238 243 247 251 64 58 39 356 330 300 274 263 257 250 247 249 250 254 258 265 263 276 290 283 287 274 265 259 244 241 243 242 243 245 248 252 252 261 255 258 260 272 284 278 278 270 248 232 221 216 213 215 215 210 214 204 204 210 210 202 198 203 208 213 207 205 211 208 209 205 195 202 188 166 161 163 168 166
217 218 216 216 217 220 225 228 234 236 240 254 254 213 181 195 218 260 260 266 272 266 263 261 257 252 258 283 276 262 254 269 274 261 259 272 261 238 236 241 243 243 241 239 240 248 256 250 239 250 242 250 269 271 247 237 216 213 209 212 210 211 209 212 222 224 196 188 196 204 210 204 201 202 214 204 205 196 189 148 148 155 163 167 165
214 219 217 218 222 222 225 225 228 232 235 227 218 220 217 218 220 224 247 256 259 264 264 266 270 272 269 266 264 258 260 263 258 259 271 264 265 272 264 255 251 238 230 232 237 238 239 248 249 244 240 237 242 249 260 254 243 223 208 213 213 210 209 218 222 226 178 172 193 195 208 201 196 202 214 203 189 189 170 151 150 157 162 162 164
213 217 221 222 225 228 227 231 231 236 236 203 201 210 218 221 221 220 242 240 247 250 254 256 259 257 259 261 257 264 274 270 272 266 259 252 256 259 260 263 259 257 251 241 230 227 230 233 240 245 245 240 234 238 244 226 234 238 221 220 209 202 203 218 222 229 183 175 183 188 204 201 194 204 207 195 189 181 155 155 156 160 164 165 163
216 218 222 227 226 230 233 238 241 241 259 169 199 208 223 233 219 235 242 244 249 253 253 255 255 262 261 254 262 254 251 255 264 273 272 278 275 272 268 265 265 266 264 258 251 244 242 242 243 250 252 248 248 242 235 228 240 257 249 226 60 116 190 200 221 172 178 185 192 194 203 202 196 204 198 188 175 170 153 157 160 161 162 159 161
213 215 224 224 228 235 238 237 241 249 257 161 181 196 227 240 226 246 244 243 243 247 254 255 258 258 259 257 256 267 273 268 41 24 359 314 268 268 267 268 267 265 264 264 239 236 241 243 245 247 254 270 276 273 260 237 242 263 257 212 187 163 168 212 225 202 214 194 201 207 207 191 188 188 168 169 167 160 161 156 159 160 156 163 168
220 223 229 235 237 244 244 249 245 251 252 175 174 176 188 182 233 247 253 265 265 260 259 263 264 267 269 274 273 272 273 292 33 17 6 310 264 263 267 265 264 262 263 263 266 256 230 240 244 245 250 257 264 272 276 270 261 260 256 252 207 179 195 208 216 224 223 218 213 202 201 193 164 162 140 147 131 148 142 145 154 165 165 167 165
219 223 222 227 226 237 250 268 283 269 265 203 167 182 191 192 223 252 253 256 259 261 266 268 269 272 277 276 334 39 26 22 8 8 350 334 289 284 279 278 275 274 272 277 278 279 278 278 265 266 268 257 254 258 267 271 238 214 220 247 216 185 207 219 222 218 230 227 216 190 202 185 154 171 145 146 181 179 168 161 162 163 168 167 164